Change the Weather History Date:

Friday, March 8, 2013

  Actual Average (KMAI) Record (KMAI)
Temperature  
Mean Temperature 60 °F 59 °F  
Max Temperature 69 °F 71 °F 80 °F (2012)
Min Temperature 50 °F 47 °F 34 °F (2013)
Degree Days  
Heating Degree Days 6    
Month to date heating degree days  
Since 1 July heating degree days  
Cooling Degree Days 0    
Month to date cooling degree days  
Year to date cooling degree days  
Growing Degree Days 10 (Base 50)    
Moisture  
Dew Point 42 °F    
Average Humidity 57    
Maximum Humidity 82    
Minimum Humidity 35    
Precipitation  
Precipitation 0.00 in 0.16 in 0.92 in (1998)
Month to date precipitation 1.20  
Year to date precipitation 11.18  
Sea Level Pressure  
Sea Level Pressure 30.25 in    
Wind  
Wind Speed 4 mph (ENE)    
Max Wind Speed 8 mph    
Max Gust Speed -    
Visibility 9 miles    
Events      
T = Trace of Precipitation, MM = Missing Value Source: NWS Daily Summary

Daily Weather History Graph

Daily Weather History Graph

Search for Another Location

Airport or City:

Trip Planner

Search our weather history database for the weather conditions in past years. The results will help you decide how hot, cold, wet, or windy it might be!

Date:

Astronomy

Mar. 08, 2013 Rise Set
Actual Time 6:00 AM CST 5:46 PM CST
Civil Twilight 5:36 AM CST 6:10 PM CST
Nautical Twilight 5:08 AM CST 6:38 PM CST
Astronomical Twilight 4:40 AM CST 7:06 PM CST
Moon 3:33 AM CST (3/8) 2:50 PM CST (3/8)
Length of Visible Light 12h 33m
Length of Day
11h 45m
Waning Crescent, 11% of the Moon is Illuminated
Mar 8
Waning Crescent
Mar 11
New
Mar 19
First Quarter
Mar 27
Full
Apr 2
Last Quarter

Hourly Weather History & Observations

Time (CST) Temp. Dew Point Humidity Pressure Visibility Wind Dir Wind Speed Gust Speed Precip Events Conditions
12:15 AM 53.6 °F 42.8 °F 67% 30.26 in 10.0 mi Calm Calm - N/A   Clear
12:35 AM 51.8 °F 42.8 °F 71% 30.26 in 10.0 mi South 3.5 mph - N/A   Clear
12:55 AM 51.8 °F 42.8 °F 71% 30.26 in 10.0 mi South 3.5 mph - N/A   Clear
1:15 AM 51.8 °F 44.6 °F 76% 30.26 in 10.0 mi Calm Calm - N/A   Clear
1:35 AM 51.8 °F 44.6 °F 76% 30.26 in 10.0 mi Calm Calm - N/A   Clear
1:55 AM 51.8 °F 44.6 °F 76% 30.26 in 10.0 mi Calm Calm - N/A   Clear
2:15 AM 51.8 °F 44.6 °F 76% 30.25 in 10.0 mi Calm Calm - N/A   Clear
2:35 AM 51.8 °F 44.6 °F 76% 30.24 in 10.0 mi Calm Calm - N/A   Clear
2:55 AM 51.8 °F 42.8 °F 71% 30.24 in 10.0 mi Calm Calm - N/A   Clear
3:15 AM 50.0 °F 42.8 °F 76% 30.24 in 10.0 mi Calm Calm - N/A   Clear
3:35 AM 50.0 °F 42.8 °F 76% 30.24 in 10.0 mi NNW 3.5 mph - N/A   Clear
3:55 AM 50.0 °F 42.8 °F 76% 30.25 in 10.0 mi North 3.5 mph - N/A   Clear
4:15 AM 50.0 °F 44.6 °F 82% 30.24 in 10.0 mi NNE 3.5 mph - N/A   Clear
4:35 AM 50.0 °F 44.6 °F 82% 30.25 in 10.0 mi NNE 4.6 mph - N/A   Clear
4:55 AM 50.0 °F 44.6 °F 82% 30.25 in 10.0 mi NNE 3.5 mph - N/A   Clear
5:15 AM 50.0 °F 44.6 °F 82% 30.26 in 10.0 mi NNE 3.5 mph - N/A   Clear
5:35 AM 51.8 °F 44.6 °F 76% 30.26 in 8.0 mi NNE 5.8 mph - N/A   Clear
5:55 AM 51.8 °F 44.6 °F 76% 30.27 in 10.0 mi NNE 4.6 mph - N/A   Clear
6:15 AM 51.8 °F 44.6 °F 76% 30.27 in 9.0 mi NNE 6.9 mph - N/A   Clear
6:35 AM 51.8 °F 44.6 °F 76% 30.27 in 5.0 mi NNE 6.9 mph - N/A   Clear
6:55 AM 51.8 °F 46.4 °F 82% 30.28 in 4.0 mi NNE 5.8 mph - N/A   Clear
7:15 AM 51.8 °F 46.4 °F 82% 30.29 in 3.0 mi NNE 5.8 mph - N/A   Clear
7:35 AM 51.8 °F 46.4 °F 82% 30.30 in 3.0 mi NNE 5.8 mph - N/A   Clear
7:55 AM 51.8 °F 46.4 °F 82% 30.30 in 4.0 mi NNE 8.1 mph - N/A   Clear
8:15 AM 53.6 °F 46.4 °F 77% 30.31 in 5.0 mi NE 6.9 mph - N/A   Clear
8:35 AM 53.6 °F 44.6 °F 72% 30.31 in 8.0 mi NE 5.8 mph - N/A   Clear
8:55 AM 55.4 °F 42.8 °F 63% 30.31 in 10.0 mi North 6.9 mph - N/A   Clear
9:15 AM 55.4 °F 42.8 °F 63% 30.31 in 10.0 mi NNE 6.9 mph - N/A   Clear
9:35 AM 57.2 °F 42.8 °F 59% 30.31 in 10.0 mi NNE 4.6 mph - N/A   Clear
9:55 AM 59.0 °F 42.8 °F 55% 30.31 in 10.0 mi Calm Calm - N/A   Clear
10:15 AM 60.8 °F 39.2 °F 45% 30.31 in 10.0 mi Calm Calm - N/A   Clear
10:35 AM 60.8 °F 37.4 °F 42% 30.31 in 10.0 mi East 4.6 mph - N/A   Clear
10:55 AM 62.6 °F 37.4 °F 39% 30.32 in 10.0 mi NE 5.8 mph - N/A   Clear
11:15 AM 62.6 °F 37.4 °F 39% 30.31 in 10.0 mi NE 5.8 mph - N/A   Clear
11:35 AM 62.6 °F 39.2 °F 42% 30.31 in 10.0 mi NE 8.1 mph - N/A   Clear
11:55 AM 62.6 °F 39.2 °F 42% 30.30 in 10.0 mi NNE 4.6 mph - N/A   Clear
12:15 PM 64.4 °F 39.2 °F 40% 30.30 in 9.0 mi NE 8.1 mph - N/A   Clear
12:35 PM 64.4 °F 39.2 °F 40% 30.28 in 10.0 mi ENE 4.6 mph - N/A   Clear
12:55 PM 66.2 °F 39.2 °F 37% 30.27 in 10.0 mi NE 6.9 mph - N/A   Unknown
1:15 PM 66.2 °F 39.2 °F 37% 30.26 in 10.0 mi NNE 5.8 mph - N/A   Clear
1:35 PM 66.2 °F 39.2 °F 37% 30.25 in 10.0 mi NE 5.8 mph - N/A   Clear
1:55 PM 66.2 °F 39.2 °F 37% 30.24 in 10.0 mi NE 3.5 mph - N/A   Clear
2:15 PM 66.2 °F 37.4 °F 35% 30.24 in 10.0 mi NE 8.1 mph - N/A   Clear
2:35 PM 66.2 °F 39.2 °F 37% 30.23 in 10.0 mi NNE 6.9 mph - N/A   Clear
2:55 PM 68.0 °F 41.0 °F 37% 30.23 in 10.0 mi NE 8.1 mph - N/A   Clear
3:15 PM 69.8 °F 42.8 °F 38% 30.23 in 10.0 mi East 6.9 mph - N/A   Clear
3:35 PM 68.0 °F 42.8 °F 40% 30.22 in 10.0 mi Calm Calm - N/A   Clear
3:55 PM 69.8 °F 44.6 °F 40% 30.23 in 10.0 mi SE 6.9 mph - N/A   Clear
4:15 PM 68.0 °F 42.8 °F 40% 30.22 in 10.0 mi SE 5.8 mph - N/A   Clear
4:35 PM 68.0 °F 42.8 °F 40% 30.22 in 10.0 mi SSE 6.9 mph - N/A   Clear
4:55 PM 66.2 °F 42.8 °F 43% 30.23 in 10.0 mi SE 8.1 mph - N/A   Clear
5:15 PM 66.2 °F 42.8 °F 43% 30.22 in 10.0 mi ESE 3.5 mph - N/A   Clear
5:35 PM 64.4 °F 41.0 °F 42% 30.21 in 10.0 mi SE 5.8 mph - N/A   Clear
5:55 PM 62.6 °F 39.2 °F 42% 30.20 in 10.0 mi SE 8.1 mph - N/A   Clear
6:15 PM 62.6 °F 39.2 °F 42% 30.21 in 10.0 mi SSE 6.9 mph - N/A   Clear
6:35 PM 62.6 °F 39.2 °F 42% 30.20 in 10.0 mi SSE 5.8 mph - N/A   Clear
6:55 PM 62.6 °F 39.2 °F 42% 30.20 in 10.0 mi SE 6.9 mph - N/A   Clear
7:15 PM 60.8 °F 39.2 °F 45% 30.21 in 10.0 mi ESE 4.6 mph - N/A   Clear
7:35 PM 60.8 °F 37.4 °F 42% 30.21 in 10.0 mi SE 5.8 mph - N/A   Clear
7:55 PM 60.8 °F 35.6 °F 39% 30.21 in 10.0 mi SE 5.8 mph - N/A   Clear
8:15 PM 60.8 °F 37.4 °F 42% 30.21 in 10.0 mi SE 6.9 mph - N/A   Clear
8:35 PM 60.8 °F 39.2 °F 45% 30.22 in 10.0 mi South 5.8 mph - N/A   Clear
8:55 PM 60.8 °F 41.0 °F 48% 30.22 in 10.0 mi SSE 5.8 mph - N/A   Clear
9:15 PM 60.8 °F 42.8 °F 52% 30.23 in 10.0 mi South 4.6 mph - N/A   Clear
9:35 PM 60.8 °F 42.8 °F 52% 30.24 in 10.0 mi South 4.6 mph - N/A   Clear
9:55 PM 60.8 °F 44.6 °F 55% 30.24 in 10.0 mi South 3.5 mph - N/A   Clear
10:15 PM 60.8 °F 44.6 °F 55% 30.24 in 10.0 mi South 3.5 mph - N/A   Clear
10:35 PM 59.0 °F 46.4 °F 63% 30.23 in 10.0 mi South 3.5 mph - N/A   Clear
10:55 PM 59.0 °F 46.4 °F 63% 30.22 in 10.0 mi Calm Calm - N/A   Clear
11:15 PM 59.0 °F 48.2 °F 67% 30.22 in 10.0 mi South 3.5 mph - N/A   Clear
11:35 PM 59.0 °F 48.2 °F 67% 30.22 in 10.0 mi South 3.5 mph - N/A   Clear
11:55 PM 59.0 °F 48.2 °F 67% 30.22 in 10.0 mi Calm Calm - N/A   Clear